Regional Weather Roundup
Issued by NWS Little Rock, AR

Home | Current Version | Previous Version | Text Only | Print | Product List | Glossary Off
Versions: 1 2 3 4 5 6 7 8 9 10 11 12 13 14 15 16 17 18 19 20 21 22 23 24 25 26 27

000
ASUS44 KLZK 020105
RWRLZK

WEATHER ROUNDUP FOR ARKANSAS
NATIONAL WEATHER SERVICE LITTLE ROCK AR
800 PM CDT SUN MAY 01 2016

NOTE: "FAIR" INDICATES FEW OR NO CLOUDS BELOW 12,000 FEET WITH NO
SIGNIFICANT WEATHER AND/OR OBSTRUCTIONS TO VISIBILITY.

ARZ001-003-010-029-020200-
NORTHWEST ARKANSAS

CITY           SKY/WX    TMP DP  RH WIND       PRES   REMARKS
FAYETTEVILLE   CLEAR     56  47  71 NW7       30.04S
FORT SMITH     CLEAR     67  45  45 N10       29.99S
HARRISON       CLEAR     61  46  57 NW8       30.03R
BENTONVILLE    CLEAR     59  43  55 NW6       30.05S
ROGERS         PTCLDY    58  45  62 NW5       30.05S
SILOAM SPGS    CLEAR     55  43  62 N5        30.06R
HIGHFILL       PTCLDY    57  48  72 NW3       30.04S
SPRINGDALE     CLEAR     61  46  59 NW8       30.05F
$$

ARZ004-005-016-020200-
NORTH CENTRAL ARKANSAS

CITY           SKY/WX    TMP DP  RH WIND       PRES   REMARKS
BATESVILLE     CLEAR     70  55  60 CALM      29.95S
FLIPPIN        CLEAR    N/A N/A N/A NW9       29.97R
MTN HOME       CLEAR     65  48  54 NW6       29.98R
$$

ARZ040-041-020200-
WEST CENTRAL ARKANSAS

CITY           SKY/WX    TMP DP  RH WIND       PRES   REMARKS
MENA           CLEAR     68  50  52 NW6       29.98S
MOUNT IDA      CLEAR     68  54  60 VRB3      29.94S
$$

ARZ009-017-025-026-028-020200-
NORTHEAST ARKANSAS

CITY           SKY/WX    TMP DP  RH WIND       PRES   REMARKS
CORNING          N/A     72  61  68 W7        29.94R
JONESBORO      CLEAR     73  60  63 NW3       29.93R
NEWPORT        CLEAR     74  60  61 N5        29.95R
WALNUT RIDGE   CLEAR     70  54  56 NW12      29.94S
BLYTHEVILLE    PTCLDY    75  66  73 W3        29.93R
$$

ARZ022-023-033-042-044-020200-
CENTRAL ARKANSAS

CITY           SKY/WX    TMP DP  RH WIND       PRES   REMARKS
LITTLE ROCK    PTCLDY    72  55  55 N8        29.93R
N LITTLE ROCK    N/A     70  57  63 CALM      29.92R
JACKSONVILLE   CLEAR     71  61  72 NW1       29.93R
SEARCY         CLEAR     72  63  73 CALM      29.94S
HOT SPRINGS    CLEAR     74  49  41 N5        29.94S
RUSSELLVILLE   CLEAR     70  53  54 NW3       29.95R
$$

ARZ036-020200-
EAST ARKANSAS

CITY           SKY/WX    TMP DP  RH WIND       PRES   REMARKS
WEST MEMPHIS   CLEAR     71  68  90 CALM      29.92R
$$

ARZ050-053-066-070-073-020200-
SOUTHWEST ARKANSAS

CITY           SKY/WX    TMP DP  RH WIND       PRES   REMARKS
ARKADELPHIA    FAIR      75  66  73 N3        29.92S
CAMDEN         MOCLDY    75  64  69 N3        29.90R
TEXARKANA      CLEAR     71  62  73 CALM      29.92R
EL DORADO      MOCLDY    76  68  76 CALM      29.90R
DE QUEEN       CLEAR     72  55  55 N5        29.92R
$$

ARZ056-057-069-020200-
SOUTHEAST ARKANSAS

CITY           SKY/WX    TMP DP  RH WIND       PRES   REMARKS
PINE BLUFF     CLEAR     75  66  73 CALM      29.92R
STUTTGART      CLEAR     75  64  69 N6        29.92S
MONTICELLO     PTCLDY    72  69  90 CALM      29.90R

$$






USA.gov is the U.S. government's official web portal to all federal, state and local government web resources and services.